RH
80 75 76 77 63 50 56 64 69 50 37 31 29 28 24 21 19 18 16 15 14 19 24 26 24 21 17 17 18 12 10 14 13 13 11 10 13 18 25 22 26 43 55 47
73 86 64 62 54 52 53 79 53 34 30 28 29 26 23 20 18 21 32 39 35 35 34 29 25 23 24 24 19 14 12 14 15 15 15 17 23 24 27 36 40 44 55 58
74 82 59 41 37 33 38 36 38 37 34 29 25 20 18 21 24 43 44 42 39 38 37 34 31 31 35 28 21 21 20 20 20 21 21 23 22 27 32 41 52 50 59 72
46 71 57 57 47 44 43 42 40 34 28 25 21 19 30 43 49 53 46 46 45 43 43 42 38 35 33 32 29 30 26 29 28 28 24 26 29 33 38 40 49 57 67 69
38 36 41 48 48 47 44 38 34 30 26 24 20 39 63 61 55 49 51 54 51 44 44 45 42 39 32 35 40 35 34 35 35 36 33 35 41 45 48 47 53 57 62 74
34 38 41 50 49 45 40 34 32 28 30 48 71 82 65 49 40 40 45 51 49 46 48 48 47 45 44 45 45 48 42 44 42 40 43 42 36 34 34 36 36 37 46 70
37 39 45 52 50 46 42 38 35 32 57 81 88 73 59 51 51 49 44 46 42 41 50 55 51 49 55 53 58 55 49 50 52 36 32 31 34 36 35 36 38 40 42 47
52 46 48 50 52 47 40 38 35 40 80 97 80 68 63 56 50 55 46 43 49 51 57 68 62 54 55 57 65 57 52 61 46 32 36 39 38 37 40 42 45 46 46 48
71 65 61 56 51 48 44 38 27 40 92 99 81 79 71 61 56 55 55 59 58 53 56 66 76 73 72 68 70 60 51 38 33 39 44 41 41 43 47 52 53 52 51 52
71 66 64 62 56 53 46 38 28 68 100 97 84 84 76 69 68 63 59 59 65 62 59 64 70 75 75 72 58 45 37 35 45 51 47 45 45 49 55 58 56 54 53 55
54 61 58 56 55 51 41 27 25 72 100 100 92 90 85 80 74 72 71 66 71 67 68 72 77 76 75 67 52 39 43 53 58 58 55 52 56 60 62 61 58 54 52 51
57 52 52 49 45 35 26 29 32 87 100 100 88 88 88 86 75 66 74 81 74 81 78 76 80 81 78 60 49 57 65 68 66 67 64 66 69 67 65 62 57 54 52 53
33 66 61 53 46 36 33 40 63 92 100 99 87 88 86 83 73 66 57 80 82 79 82 74 79 83 75 68 79 83 82 79 77 77 77 76 74 71 69 65 61 60 58 52
31 40 72 63 54 44 34 36 66 100 100 97 86 80 61 52 47 42 45 53 77 84 80 80 85 87 85 79 82 90 88 84 85 87 86 84 81 77 74 71 67 66 63 59
31 34 53 70 61 56 44 38 45 91 100 100 87 59 58 57 56 49 48 57 78 79 80 82 86 88 94 93 85 82 86 91 93 94 96 93 86 80 76 75 73 71 71 66
54 42 52 68 62 56 52 47 42 47 95 100 86 62 72 73 61 58 55 71 82 85 86 93 87 87 90 94 95 98 100 99 98 99 100 98 92 84 79 79 78 75 76 74
77 74 62 57 53 48 44 44 43 45 51 93 92 70 70 73 78 72 61 61 69 76 84 91 92 97 96 97 98 97 98 99 98 100 100 100 94 88 82 83 79 79 79 80
80 82 80 76 65 55 44 38 40 43 46 51 87 86 76 75 72 81 80 62 56 60 73 77 87 90 97 100 100 99 100 96 96 100 100 100 95 89 86 85 83 84 85 81
95 93 88 86 83 73 61 51 43 42 45 48 48 78 98 95 87 86 91 88 65 60 71 75 80 91 98 100 100 100 99 92 97 100 100 98 96 91 90 90 91 89 85 82
100 98 98 100 100 97 84 67 56 49 49 54 53 51 72 99 100 99 96 94 92 93 94 98 96 99 98 100 100 100 98 97 100 100 100 100 98 94 91 90 88 87 85 78
100 100 100 100 100 100 98 91 80 70 62 59 61 58 61 81 99 99 100 100 98 98 100 100 100 100 100 97 100 100 100 100 100 100 100 100 100 99 96 94 92 92 90 82
100 100 99 97 88 94 100 100 96 88 84 80 74 66 65 82 96 100 100 100 100 100 100 100 100 100 100 100 100 100 100 100 100 100 100 100 100 100 99 99 100 100 94 86
80 94 99 100 99 95 92 95 100 100 99 90 84 85 90 93 94 89 94 99 99 100 100 100 100 100 100 100 100 99 99 98 98 100 100 100 100 100 100 100 100 94 93 92
32 30 34 42 68 93 100 100 100 100 100 100 100 100 100 100 100 100 100 100 100 100 100 100 100 97 97 100 100 100 100 100 100 100 100 100 100 100 100 100 99 100 99 93
29 27 24 22 21 24 28 46 70 92 99 100 94 89 98 100 100 100 100 100 100 100 100 100 100 100 100 100 99 99 99 98 98 99 100 100 100 100 100 100 100 100 100 99
28 24 18 14 14 16 17 16 15 15 20 35 55 72 87 90 92 93 93 92 87 77 59 43 30 25 23 22 24 26 28 30 31 40 57 79 88 99 100 100 100 100 99 98
18 10 13 14 12 12 14 16 17 16 14 14 14 15 16 17 17 17 17 16 16 17 16 13 13 13 14 16 17 16 16 16 18 21 23 23 25 46 48 77 99 100 100 99
Wind_Speed
18 19 19 20 19 19 19 23 27 28 28 27 23 21 24 25 25 25 26 25 24 22 22 22 24 25 26 27 23 20 17 16 17 16 16 19 19 25 31 34 37 42 30 35
17 18 16 18 19 19 23 23 24 27 25 22 22 23 23 23 23 22 21 22 22 23 23 23 24 25 24 25 23 20 19 18 19 18 18 20 20 22 25 29 30 33 29 29
16 17 16 16 18 20 20 23 24 21 24 20 20 20 20 20 21 20 20 19 20 21 20 19 20 20 22 22 22 18 20 22 22 19 20 20 19 20 21 26 24 22 24 25
17 18 18 17 17 19 20 20 18 20 19 18 18 18 18 18 19 20 19 19 18 19 23 25 24 23 23 24 22 20 20 22 18 18 17 18 18 15 18 21 24 23 19 17
18 19 17 20 19 17 17 17 18 19 18 19 18 17 17 18 18 19 19 18 19 20 20 21 24 23 21 24 22 20 20 18 17 16 17 18 18 20 19 19 21 20 18 15
19 18 19 16 17 17 17 17 18 18 17 17 16 17 16 16 16 17 18 21 23 24 23 20 23 22 20 18 20 22 19 16 16 18 17 17 16 17 20 21 22 21 19 18
19 19 18 17 17 18 18 15 16 16 16 17 17 17 17 16 15 14 14 14 15 17 19 21 21 22 23 23 23 20 20 19 19 14 13 16 19 19 21 22 22 21 19 17
21 21 22 19 19 18 16 15 18 18 19 19 17 17 16 16 15 14 12 13 14 14 16 18 18 17 19 20 18 16 18 18 16 15 16 17 19 20 19 20 20 21 20 19
27 26 24 23 21 20 19 19 19 21 20 20 18 17 17 17 15 15 15 15 14 14 14 16 18 17 19 19 17 15 15 15 15 16 17 18 19 19 19 19 21 20 18 17
26 27 29 29 27 24 23 23 21 21 21 20 20 20 19 17 17 17 16 16 16 16 15 15 15 15 16 16 16 15 15 15 14 16 17 18 19 20 20 20 21 20 20 19
25 26 26 27 28 25 25 25 23 23 23 22 21 21 21 18 17 18 18 17 15 16 16 15 15 15 15 16 16 16 14 14 15 16 18 19 20 20 20 22 21 20 20 21
21 25 26 25 24 25 26 24 25 25 24 23 22 22 23 21 19 19 20 18 16 17 18 18 18 18 17 16 15 15 16 16 16 18 20 21 20 21 22 23 22 22 22 24
21 23 25 24 26 26 26 25 25 26 25 23 22 22 23 22 22 23 23 21 22 20 20 19 18 18 18 18 18 19 18 19 21 22 22 22 22 24 24 24 24 23 25 26
23 25 26 25 24 27 26 26 26 26 26 23 22 22 22 21 22 23 24 22 22 21 18 21 20 18 21 22 22 21 22 24 25 24 24 24 25 25 26 25 25 26 27 28
26 26 27 27 25 25 27 27 28 27 26 24 23 22 20 17 19 20 22 22 20 20 21 22 22 21 21 23 24 25 27 28 28 27 27 26 27 27 28 27 26 27 29 31
24 25 26 26 26 26 26 28 28 30 29 28 27 24 21 18 17 19 20 21 20 20 19 21 21 21 22 23 24 24 25 27 29 30 30 29 29 29 30 28 28 29 31 33
24 25 25 25 26 27 27 28 29 30 31 31 30 28 25 21 19 18 20 21 22 22 21 20 22 23 24 24 24 26 27 29 30 30 29 29 30 30 31 29 30 31 32 34
25 24 24 25 27 27 27 26 27 29 31 34 32 32 30 28 24 22 22 23 23 24 23 23 23 25 27 28 28 29 29 29 30 29 28 29 30 31 32 31 32 33 34 35
17 18 19 22 25 27 28 27 27 28 29 30 33 34 32 32 29 27 26 25 26 25 26 27 29 29 28 29 30 30 29 30 28 27 28 31 31 32 32 32 33 34 35 36
12 12 13 14 16 19 22 24 26 27 28 28 30 33 33 33 32 32 30 29 29 30 31 30 31 31 32 29 29 30 33 32 29 29 30 31 31 33 33 33 34 35 35 35
5 6 7 8 7 9 13 17 20 23 26 27 29 31 32 31 31 29 29 30 31 29 29 29 26 28 30 30 33 35 32 29 29 31 32 32 33 34 34 35 36 37 37 36
6 8 9 11 11 9 9 11 12 16 19 22 24 27 27 27 27 27 28 29 29 30 29 29 30 30 29 32 31 27 27 29 31 31 32 33 34 35 36 37 39 40 41 41
5 7 9 11 13 14 13 13 14 15 16 18 22 24 26 27 28 28 29 30 29 27 27 26 26 26 26 25 25 27 29 29 30 31 32 33 33 34 35 37 42 42 42 44
11 12 13 14 14 15 17 21 21 19 19 20 20 21 22 22 23 23 25 24 23 24 24 25 27 27 28 29 31 34 33 34 34 33 35 34 35 37 39 41 41 42 45 45
21 22 23 23 23 23 21 20 21 23 25 25 23 24 24 25 27 27 28 28 30 31 30 30 32 33 34 32 33 35 36 37 36 36 34 36 35 37 40 40 42 44 43 45
27 28 29 30 29 28 27 27 27 28 29 28 27 25 26 26 27 28 28 28 30 30 31 31 31 32 33 33 34 35 36 38 39 40 41 42 43 42 43 47 43 43 44 45
24 18 15 15 14 15 17 18 19 18 18 20 22 24 25 25 25 26 26 26 26 27 27 26 26 27 28 30 31 32 34 36 37 39 41 42 42 43 46 45 44 44 44 44
Wind_Direction
219 219 220 224 230 229 222 216 218 224 229 230 232 231 235 239 243 247 251 256 259 258 255 256 261 265 269 272 274 271 262 278 293 311 307 310 316 322 318 318 307 312 311 302
224 216 212 212 213 211 207 216 214 223 226 226 227 231 237 243 246 250 252 254 256 251 250 255 261 268 273 272 263 270 267 273 289 291 311 309 310 311 324 316 315 319 313 320
210 211 205 206 206 203 206 212 217 221 229 228 233 237 242 242 240 241 243 244 248 250 251 257 262 270 264 270 266 273 279 278 287 292 305 301 308 322 323 329 325 327 327 324
213 208 211 206 211 208 211 220 224 233 236 242 245 245 243 242 240 240 246 253 258 262 261 257 265 271 262 263 272 278 283 283 281 284 302 306 302 317 327 330 339 327 328 334
223 222 215 212 217 220 222 226 231 238 240 244 243 240 242 243 243 247 255 262 264 264 264 264 257 267 268 263 266 276 284 280 277 290 298 300 309 318 324 330 333 337 344 332
226 224 221 216 220 222 226 230 233 237 239 242 241 242 245 251 256 258 261 263 264 264 265 269 261 264 267 257 267 282 284 274 286 294 294 306 314 322 324 327 329 332 333 336
229 228 229 223 227 229 234 235 239 240 239 238 239 242 244 247 249 257 262 265 275 274 268 261 262 264 262 266 277 275 270 274 289 287 295 305 309 315 318 321 324 327 328 326
234 234 235 236 238 242 248 248 246 240 232 234 237 241 243 244 242 247 259 269 273 275 271 267 263 263 260 262 262 269 273 274 275 285 296 305 312 315 318 320 322 322 321 321
245 243 242 242 244 247 249 247 243 237 232 233 236 240 239 239 239 245 264 268 274 275 276 274 269 263 260 260 262 263 267 267 273 286 300 309 312 314 314 317 322 322 322 317
244 244 244 244 245 249 251 248 242 234 234 233 235 236 236 237 242 255 261 268 268 272 275 278 276 271 268 264 261 261 265 267 279 293 301 309 312 310 311 316 320 321 321 316
245 243 242 242 243 243 244 244 238 233 233 238 236 236 237 239 245 254 262 266 273 268 268 272 274 271 267 265 267 266 263 273 284 295 301 306 308 314 316 316 313 314 316 314
247 247 242 239 239 239 239 239 235 231 234 237 241 240 236 240 248 255 257 264 264 265 265 269 272 270 268 266 264 266 272 277 288 296 299 302 310 315 313 311 310 313 314 314
255 247 247 238 237 238 239 236 235 234 237 240 244 246 240 244 253 258 256 256 264 270 261 263 271 268 261 259 263 268 273 284 292 293 297 303 309 312 311 309 307 308 311 312
264 250 245 245 239 239 238 238 235 235 239 240 242 244 245 250 257 260 261 255 257 268 261 260 264 264 262 265 268 271 277 285 290 293 296 300 303 308 309 306 305 308 311 314
261 251 243 245 246 243 241 238 235 236 238 239 238 241 245 252 259 260 260 257 255 263 268 264 267 268 267 266 267 273 280 285 288 291 293 296 301 303 307 305 302 305 308 310
260 252 244 243 248 249 246 241 239 236 236 238 237 239 245 251 261 261 259 260 262 267 274 268 262 264 267 268 271 277 283 288 291 291 290 292 298 301 304 302 301 303 306 310
247 245 246 248 249 250 248 245 241 240 238 240 240 240 246 255 262 270 267 265 266 269 274 273 267 264 266 268 273 278 284 290 294 290 287 289 296 298 301 299 300 303 305 309
250 246 244 245 247 248 248 246 245 243 242 240 241 242 245 252 259 264 269 271 272 271 272 273 271 268 267 270 276 282 285 293 297 291 288 292 294 297 300 299 300 302 305 309
248 246 247 248 249 249 248 247 246 243 242 245 243 244 246 250 254 259 265 271 272 272 273 274 272 268 266 270 274 279 284 293 291 287 288 294 295 298 299 299 301 303 306 309
249 248 246 249 252 252 250 246 246 245 243 245 245 242 244 248 253 256 261 267 270 271 271 273 272 269 271 272 277 283 289 290 285 285 290 292 293 295 296 299 301 303 306 311
236 229 240 238 257 274 264 253 248 245 245 246 246 244 245 249 254 260 263 265 267 268 271 274 268 269 272 276 282 285 285 283 284 288 289 291 292 294 295 298 299 301 305 308
251 261 263 266 270 268 270 272 263 252 249 247 245 244 246 248 254 261 264 267 267 268 267 265 262 261 264 271 276 278 283 287 289 290 291 291 292 294 297 299 299 301 305 307
274 279 277 274 274 279 280 279 275 269 265 259 253 250 249 253 260 263 265 267 266 261 258 259 262 262 264 271 280 285 288 293 294 292 293 294 295 296 298 300 301 305 306 306
278 279 277 274 272 270 266 268 274 272 269 268 264 262 262 263 264 262 258 252 255 261 266 269 271 272 274 278 283 281 283 284 288 284 289 293 295 298 299 296 300 303 304 307
275 281 283 280 275 269 268 266 266 267 269 268 266 261 258 258 261 261 262 263 263 266 270 269 273 272 270 276 280 279 281 286 287 288 285 292 294 297 293 294 301 303 302 304
271 279 280 276 271 266 266 269 270 268 264 263 266 265 265 263 265 266 267 270 272 273 274 275 276 275 277 279 281 284 285 287 290 290 289 288 290 292 293 301 302 300 303 305
261 255 264 276 274 264 263 266 269 273 273 270 267 266 266 265 265 266 268 269 270 271 273 276 278 280 281 283 285 287 289 291 293 293 293 293 293 291 291 294 297 300 301 303